Tahlequah, OK

9:17 AM CST on December 05, 2016 (GMT -0600)
Tahlequah Municipal

Weather History for KTQH - September, 2014

Change the Weather History Date:

Tuesday, September 2, 2014

  Actual Average (KMKO) Record (KMKO)
Temperature  
Mean Temperature 70 °F -  
Max Temperature 77 °F 88 °F 109 °F (2000)
Min Temperature 64 °F 65 °F 61 °F (2004)
Cooling Degree Days 6    
Growing Degree Days 20 (Base 50)    
Moisture  
Dew Point 67 °F    
Average Humidity 88    
Maximum Humidity 100    
Minimum Humidity 74    
Precipitation  
Precipitation 2.69 in - - ()
Sea Level Pressure  
Sea Level Pressure 29.99 in    
Wind  
Wind Speed 5 mph (ESE)    
Max Wind Speed 17 mph    
Max Gust Speed 30 mph    
Visibility 8 miles    
Events Fog    
Averages and records for this station are not official NWS values.
T = Trace of Precipitation, MM = Missing Value Source: NWS Daily Summary

Daily Weather History Graph

Daily Weather History Graph

Search for Another Location

Airport or City:

Trip Planner

Search our weather history database for the weather conditions in past years. The results will help you decide how hot, cold, wet, or windy it might be!

Date:

Astronomy

Sep. 02, 2014 Rise Set
Actual Time 6:52 AM CDT 7:46 PM CDT
Civil Twilight 6:26 AM CDT 8:12 PM CDT
Nautical Twilight 5:55 AM CDT 8:42 PM CDT
Astronomical Twilight 5:23 AM CDT 9:14 PM CDT
Moon 2:24 PM CDT (9/2) 12:02 AM CDT (9/2)
Length of Visible Light 13h 45m
Length of Day
12h 53m
First Quarter, 53% of the Moon is Illuminated
Sep 2
First Quarter
Sep 8
Full
Sep 15
Last Quarter
Sep 24
New
Oct 1
First Quarter

Hourly Weather History & Observations

Time (CDT) Temp. Dew Point Humidity Pressure Visibility Wind Dir Wind Speed Gust Speed Precip Events Conditions
12:15 AM 77.0 °F 68.0 °F 74% 29.92 in 10.0 mi SE 4.6 mph - N/A   Clear
12:35 AM 77.0 °F 68.0 °F 74% 29.89 in 10.0 mi SE 8.1 mph - N/A   Clear
12:55 AM 77.0 °F 68.0 °F 74% 29.90 in 10.0 mi SE 5.8 mph - N/A   Clear
1:15 AM 77.0 °F 68.0 °F 74% 29.88 in 10.0 mi SSE 8.1 mph - N/A   Clear
1:35 AM 77.0 °F 68.0 °F 74% 29.89 in 10.0 mi SSE 5.8 mph - N/A   Clear
1:55 AM 77.0 °F 68.0 °F 74% 29.89 in 10.0 mi South 4.6 mph - N/A   Clear
2:15 AM 77.0 °F 68.0 °F 74% 29.90 in 10.0 mi Calm Calm - N/A   Clear
2:35 AM 75.2 °F 68.0 °F 78% 29.89 in 10.0 mi SSE 3.5 mph - N/A   Clear
2:55 AM 77.0 °F 68.0 °F 74% 29.90 in 10.0 mi Calm Calm - N/A   Clear
3:15 AM 73.4 °F 68.0 °F 83% 29.90 in 10.0 mi Calm Calm - N/A   Clear
3:35 AM 73.4 °F 68.0 °F 83% 29.91 in 10.0 mi Calm Calm - N/A   Clear
3:55 AM 73.4 °F 68.0 °F 83% 29.93 in 10.0 mi NNE 4.6 mph - N/A   Clear
4:15 AM 75.2 °F 68.0 °F 78% 29.94 in 10.0 mi NE 4.6 mph - N/A   Clear
4:35 AM 75.2 °F 68.0 °F 78% 29.94 in 4.0 mi Calm Calm - N/A   Haze
4:55 AM 73.4 °F 69.8 °F 88% 29.95 in 5.0 mi North 3.5 mph - 0.04 in   Scattered Clouds
5:15 AM 71.6 °F 69.8 °F 94% 29.95 in 7.0 mi Calm Calm - N/A   Clear
5:35 AM 71.6 °F 69.8 °F 94% 29.95 in 7.0 mi East 3.5 mph - N/A   Scattered Clouds
5:55 AM 71.6 °F 68.0 °F 88% 29.99 in 7.0 mi NNE 17.3 mph 29.9 mph N/A   Mostly Cloudy
6:15 AM 69.8 °F 64.4 °F 83% 30.00 in 7.0 mi North 15.0 mph 21.9 mph 0.01 in   Mostly Cloudy
6:35 AM 68.0 °F 64.4 °F 88% 30.03 in 4.0 mi East 6.9 mph 10.4 mph 0.02 in   Overcast
6:55 AM 66.2 °F 64.4 °F 94% 30.02 in 1.0 mi ENE 5.8 mph - 0.12 in   Overcast
7:15 AM 64.4 °F 64.4 °F 100% 30.02 in 1.5 mi East 8.1 mph - 0.06 in   Overcast
7:35 AM 64.4 °F 64.4 °F 100% 30.03 in 10.0 mi ESE 5.8 mph - 0.07 in   Mostly Cloudy
7:55 AM 64.4 °F 64.4 °F 100% 30.09 in 0.5 mi NE 9.2 mph - 0.24 in Fog Fog
8:15 AM 64.4 °F 64.4 °F 100% 30.08 in 0.2 mi NE 9.2 mph 17.3 mph 0.99 in Fog Fog
8:35 AM 64.4 °F 64.4 °F 100% 30.07 in 0.2 mi East 8.1 mph - 1.63 in Fog Fog
8:55 AM 64.4 °F 64.4 °F 100% 30.09 in 0.2 mi Calm Calm - 2.02 in Fog Fog
9:15 AM 64.4 °F 64.4 °F 100% 30.08 in 1.2 mi South 3.5 mph - 0.10 in   Overcast
9:35 AM 64.4 °F 64.4 °F 100% 30.08 in 3.0 mi ESE 3.5 mph - 0.13 in   Overcast
9:55 AM 64.4 °F 64.4 °F 100% 30.09 in 7.0 mi SE 4.6 mph - 0.14 in   Scattered Clouds
10:15 AM 64.4 °F 64.4 °F 100% 30.10 in 4.0 mi SE 4.6 mph - 0.01 in   Mostly Cloudy
10:35 AM 64.4 °F 64.4 °F 100% 30.10 in 4.0 mi SSE 6.9 mph - 0.03 in   Overcast
10:55 AM 64.4 °F 64.4 °F 100% 30.08 in 1.8 mi South 12.7 mph 21.9 mph 0.08 in   Overcast
11:15 AM 64.4 °F 64.4 °F 100% 30.11 in 5.0 mi South 9.2 mph 17.3 mph 0.01 in   Mostly Cloudy
11:35 AM 64.4 °F 64.4 °F 100% 30.11 in 4.0 mi South 6.9 mph - 0.03 in   Mostly Cloudy
11:55 AM 64.4 °F 64.4 °F 100% 30.07 in 10.0 mi South 11.5 mph 16.1 mph 0.04 in   Scattered Clouds
12:15 PM 64.4 °F 64.4 °F 100% 30.07 in 10.0 mi SSE 6.9 mph - N/A   Clear
12:35 PM 64.4 °F 64.4 °F 100% 30.04 in 10.0 mi SE 10.4 mph 16.1 mph N/A   Clear
12:55 PM 64.4 °F 64.4 °F 100% 30.04 in 7.0 mi ESE 5.8 mph - 0.01 in   Scattered Clouds
1:15 PM 68.0 °F 66.2 °F 94% 30.02 in 10.0 mi East 5.8 mph - N/A   Clear
1:35 PM 68.0 °F 66.2 °F 94% 30.01 in 10.0 mi East 4.6 mph - N/A   Clear
1:55 PM 69.8 °F 66.2 °F 88% 30.01 in 10.0 mi East 4.6 mph - N/A   Scattered Clouds
2:15 PM 69.8 °F 66.2 °F 88% 30.01 in 10.0 mi ESE 3.5 mph - N/A   Clear
2:35 PM 71.6 °F 68.0 °F 88% 30.01 in 10.0 mi SE 3.5 mph - N/A   Clear
2:55 PM 73.4 °F 68.0 °F 83% 29.99 in 10.0 mi Calm Calm - N/A   Clear
3:15 PM 73.4 °F 68.0 °F 83% 29.98 in 10.0 mi Calm Calm - N/A   Clear
3:35 PM 73.4 °F 68.0 °F 83% 29.97 in 10.0 mi Calm Calm - N/A   Clear
3:55 PM 73.4 °F 68.0 °F 83% 29.97 in 10.0 mi Calm Calm - N/A   Clear
4:15 PM 73.4 °F 68.0 °F 83% 29.97 in 10.0 mi Calm Calm - N/A   Scattered Clouds
4:35 PM 77.0 °F 68.0 °F 74% 29.96 in 10.0 mi Calm Calm - N/A   Scattered Clouds
4:55 PM 77.0 °F 68.0 °F 74% 29.97 in 10.0 mi Calm Calm - N/A   Clear
5:15 PM 75.2 °F 68.0 °F 78% 29.97 in 10.0 mi SSW 3.5 mph - N/A   Clear
5:55 PM 77.0 °F 68.0 °F 74% 29.98 in 10.0 mi Calm Calm - N/A   Clear
6:15 PM 77.0 °F 68.0 °F 74% 29.99 in 10.0 mi SSW 3.5 mph - N/A   Clear
6:35 PM 75.2 °F 68.0 °F 78% 29.99 in 10.0 mi Calm Calm - N/A   Clear
6:55 PM 73.4 °F 68.0 °F 83% 29.98 in 10.0 mi SSE 3.5 mph - N/A   Clear
7:15 PM 73.4 °F 68.0 °F 83% 29.98 in 10.0 mi Calm Calm - N/A   Clear
7:35 PM 71.6 °F 68.0 °F 88% 29.98 in 10.0 mi ESE 3.5 mph - N/A   Clear
7:55 PM 71.6 °F 68.0 °F 88% 29.99 in 10.0 mi ESE 3.5 mph - N/A   Clear
8:15 PM 71.6 °F 68.0 °F 88% 29.99 in 10.0 mi East 3.5 mph - N/A   Clear
8:35 PM 69.8 °F 68.0 °F 94% 29.99 in 10.0 mi East 3.5 mph - N/A   Clear
8:55 PM 69.8 °F 68.0 °F 94% 30.00 in 10.0 mi East 3.5 mph - N/A   Clear
9:15 PM 69.8 °F 68.0 °F 94% 30.00 in 10.0 mi ESE 3.5 mph - N/A   Clear
9:35 PM 69.8 °F 66.2 °F 88% 30.00 in 10.0 mi Calm Calm - N/A   Clear
9:55 PM 68.0 °F 66.2 °F 94% 30.00 in 10.0 mi Calm Calm - N/A   Clear
10:15 PM 68.0 °F 64.4 °F 88% 30.00 in 10.0 mi Calm Calm - N/A   Clear
10:35 PM 68.0 °F 64.4 °F 88% 30.00 in 10.0 mi Calm Calm - N/A   Clear
10:55 PM 68.0 °F 64.4 °F 88% 30.00 in 10.0 mi Calm Calm - N/A   Clear
11:15 PM 68.0 °F 64.4 °F 88% 29.99 in 10.0 mi ESE 4.6 mph - N/A   Clear
11:35 PM 68.0 °F 64.4 °F 88% 29.99 in 10.0 mi ESE 3.5 mph - N/A   Clear
11:55 PM 68.0 °F 64.4 °F 88% 29.99 in 10.0 mi Calm Calm - N/A   Clear